User: anonymous
Location: Unspecified
(0.0000°N, 0.0000°E)
Time: 12:19:58
(UTC+02:00)
Language:

Cosmos 1703 - Orbit

View from above orbital plane
View from above orbital plane
View from above satellite
View from above satellite

Ground track
Ground track

The orbit data is extracted from the following two-line orbital elements,

1 16262U 85108A   14208.45122002  .00002013  00000-0  13685-3 0  4874
2 16262 082.4915 203.5853 0011645 336.0490 024.0194 15.05791985559702
Epoch (UTC): 27 July 2014 10:49:45
Eccentricity: 0.0011645
inclination: 82.4915°
perigee height: 541 km
apogee height: 557 km
right ascension of ascending node: 203.5853°
argument of perigee: 336.0490°
revolutions per day: 15.05791985
mean anomaly at epoch: 24.0194°
orbit number at epoch: 55970

The dashed part of the orbit path shows where the satellite is in the earth's shadow,  

DLR